Terug naar catalogus

DELTA 2 R/B

ActiefLEO
NORAD 21393·ROCKET BODY·🇺🇸 United States

Gelanceerd May 29, 1991 vanaf Cape Canaveral Space Force Station

Loading…

Volgende Passages (komende 24 uur)

TLE

VersSource: Space-Track

Epoch: Sep 14, 2026, 18:38 UTC

1 21393U 91037B   26257.77689360  .00007136  00000-0  47803-3 0  9998
2 21393  24.9846   8.3400 0774165 263.9251  87.2580 13.83450272711000

Volg DELTA 2 R/B in realtime met AllMySat

Download on the App Store